Flag for U.S.A. Weather past 2 weeks in Baton Rouge, Louisiana, U.S.A.

Now
80 °F

Clear.


Feels Like: 85 °F
Forecast: 73 / 88 °F
Wind: 6 mph from Southeast

Location: Baton Rouge Metropolitan - Ryan Field

Current Time: Sep 3, 2015 at 11:49:41 PM

Latest Report: Sep 3, 2015 at 10:53 PM


Visibility: 10 mi

Pressure: 29.93 "Hg

Humidity: 81%

Dew point: 74 °F

Location of Baton RougeLocation

Historic Weather in Baton Rouge — Graph

°F

Baton Rouge temperature yesterday

Maximum temperature yesterday: 87 °F (at 1:53 PM)
Minimum temperature yesterday: 75 °F (at 11:53 PM)
Average temperature yesterday: 80 °F

Past Weeks' High & Low Weather Summary

 TemperatureHumidityPressure
High94 °F (Aug 23, 3:53 PM)97% (Aug 23, 4:53 AM)30.10 "Hg (Aug 23, 4:53 AM)
Low61 °F (Aug 27, 4:53 AM)33% (Aug 26, 2:53 PM)29.89 "Hg (Sep 3, 5:53 PM)
Average80 °F72%30.01 "Hg
* Reported Aug 19 9:53 PM — Sep 3 9:53 PM, Baton Rouge, Weather by CustomWeather, © 2015

Note: Actual official high and low records may vary slightly from our data, if they occured in-between our weather recording intervals... More about our weather records

Advertising

Baton Rouge weather history for previous 24 hours

 ConditionsComfort  
Time TempWeatherWind HumidityBarometerVisibility
9:53 PM
Thu, Sep 3
81 °FClear.6 mph77%29.93 "Hg10 mi
8:53 PM81 °FClear.5 mph77%29.91 "Hg10 mi
7:53 PM83 °FSunny.7 mph70%29.90 "Hg10 mi
6:53 PM86 °FSunny.7 mph63%29.89 "Hg10 mi
5:53 PM89 °FScattered clouds.7 mph57%29.89 "Hg10 mi
4:53 PM89 °FScattered clouds.13 mph57%29.90 "Hg10 mi
3:53 PM89 °FScattered clouds.10 mph59%29.92 "Hg10 mi
2:53 PM88 °FPartly sunny.12 mph61%29.93 "Hg10 mi
1:53 PM93 °FPartly sunny.No wind44%29.94 "Hg10 mi
12:53 PM90 °FPartly sunny.6 mph48%29.97 "Hg10 mi
11:53 AM89 °FPartly sunny.5 mph55%29.99 "Hg10 mi
10:53 AM85 °FScattered clouds.7 mph68%30.00 "Hg10 mi
9:53 AM83 °FSunny.6 mph72%30.01 "Hg10 mi
8:53 AM79 °FPassing clouds.6 mph79%30.01 "Hg10 mi
7:53 AM74 °FPassing clouds.5 mph91%30.00 "Hg7 mi
6:53 AM74 °FClear.3 mph88%29.99 "Hg10 mi
5:53 AM74 °FClear.3 mph91%29.98 "Hg10 mi
4:53 AM74 °FClear.No wind91%29.98 "Hg10 mi
3:53 AM74 °FClear.3 mph91%29.97 "Hg10 mi
2:53 AM75 °FClear.No wind88%29.96 "Hg10 mi
1:53 AM75 °FClear.5 mph88%29.96 "Hg10 mi
12:53 AM75 °FClear.3 mph88%29.98 "Hg10 mi
11:53 PM
Wed, Sep 2
75 °FClear.5 mph88%30.00 "Hg10 mi
Weather by CustomWeather, © 2015

See weather overviewHow to use our weather pages